Hourly Data Report for June 22, 2012

All times are specified in Local Standard Time (LST). Add 1 hour to adjust for Daylight Saving Time where and when it is observed.

MONCTON INTL A
NEW BRUNSWICK

46°06'44.000" N
64°40'43.000" W
70.70 m
8103201
71705
YQM

Download Data

Hourly Data (June 2012)
Hourly Data Report for June 22, 2012
Temp Definition
°C
Dew Point Temp Definition
°C
Rel Hum Definition
%
Wind Dir Definition
10's deg

Wind Spd Definition
km/h
Visibility Definition
km
Stn Press Definition
kPa
Hmdx Definition


Wind Chill Definition


Weather Definition


TIME
00:00 12.9 12.8 99 12 6 10.0 100.00     LegendNANA
01:00 13.8 13.2 96 16 7 10.0 100.00     LegendNANA
02:00 11.9 11.6 98   0 10.0 100.00     Mostly Cloudy
03:00 14.2 13.4 95 13 12 10.0 99.95     LegendNANA
04:00 12.1 11.8 98 12 5 10.0 99.98     LegendNANA
05:00 12.5 12.4 99 9 9 10.0 100.01     Mostly Cloudy
06:00 13.6 13.1 97 10 11 10.0 100.02     LegendNANA
07:00 14.9 14.1 95 16 8 10.0 100.08     LegendNANA
08:00 15.6 14.2 91 12 12 10.0 100.09     Mostly Cloudy
09:00 16.1 14.5 90 14 10 10.0 100.14     Rain Showers
10:00 17.4 15.8 90 17 13 10.0 100.10     Rain Showers
11:00 18.2 16.0 87 15 14 10.0 100.05     Cloudy
12:00 20.4 16.7 79 11 10 10.0 100.10 25   LegendNANA
13:00 21.2 16.9 76 12 15 10.0 100.09 26   Rain Showers
14:00 22.0 16.8 72 15 20 10.0 100.05 27   Rain Showers
15:00 22.1 16.9 72 16 21 10.0 99.99 27   LegendNANA
16:00 20.9 16.4 75 15 17 10.0 99.99 26   LegendNANA
17:00 20.7 16.6 77 15 18 10.0 99.95 26   Rain Showers
18:00 20.9 17.0 78 14 19 10.0 99.96 26   LegendNANA
19:00 20.1 16.4 79 17 17 10.0 99.95 25   LegendNANA
20:00 19.3 16.0 81 15 14 10.0 100.07     Cloudy
21:00 18.7 15.6 82 14 18 10.0 100.10     LegendNANA
22:00 18.0 15.5 85 15 15 10.0 100.16     LegendNANA
23:00 16.9 14.9 88 16 17 10.0 100.17     Rain Showers

Notes on Data Quality.

Legend

  • E = Estimated
  • M = Missing
  • NA = Not Available
Date modified: